Time,TemperatureF,DewpointF,PressureIn,WindDirection,WindDirectionDegrees,WindSpeedMPH,WindSpeedGustMPH,Humidity,HourlyPrecipIn,Conditions,Clouds,dailyrainin,SoftwareType,DateUTC
2013-02-05 00:00:00,43.7,21.6,29.03,North,0,0.0,0.0,41,0.00,,,0.00,VWS V12.08,2013-02-05 05:00:00,
2013-02-05 00:05:00,43.5,21.4,29.03,North,0,0.0,0.0,41,0.00,,,0.00,VWS V12.08,2013-02-05 05:05:00,
2013-02-05 00:10:00,43.5,21.4,29.03,North,0,0.0,0.0,41,0.00,,,0.00,VWS V12.08,2013-02-05 05:10:00,
2013-02-05 00:15:00,43.7,21.6,29.03,North,0,0.0,0.0,41,0.00,,,0.00,VWS V12.08,2013-02-05 05:15:00,
2013-02-05 00:20:00,43.7,21.6,29.03,North,0,0.0,0.0,41,0.00,,,0.00,VWS V12.08,2013-02-05 05:20:00,
2013-02-05 00:25:00,43.7,21.6,29.03,North,0,0.0,0.0,41,0.00,,,0.00,VWS V12.08,2013-02-05 05:25:00,
2013-02-05 00:30:00,43.7,21.6,29.03,North,0,0.0,0.0,41,0.00,,,0.00,VWS V12.08,2013-02-05 05:30:00,
2013-02-05 00:35:00,43.9,21.7,29.03,North,0,0.0,0.0,41,0.00,,,0.00,VWS V12.08,2013-02-05 05:35:00,
2013-02-05 00:40:00,43.7,21.6,29.03,North,0,0.0,0.0,41,0.00,,,0.00,VWS V12.08,2013-02-05 05:40:00,
2013-02-05 00:45:00,43.7,21.6,29.03,North,0,0.0,0.0,41,0.00,,,0.00,VWS V12.08,2013-02-05 05:45:00,
2013-02-05 00:50:00,43.7,21.6,29.03,North,0,0.0,0.0,41,0.00,,,0.00,VWS V12.08,2013-02-05 05:50:00,
2013-02-05 00:55:00,43.7,21.6,29.03,North,0,0.0,0.0,41,0.00,,,0.00,VWS V12.08,2013-02-05 05:55:00,
2013-02-05 01:00:00,43.7,21.6,29.03,North,0,0.0,0.0,41,0.00,,,0.00,VWS V12.08,2013-02-05 06:00:00,
2013-02-05 01:05:00,43.7,21.6,29.03,North,0,0.0,0.0,41,0.00,,,0.00,VWS V12.08,2013-02-05 06:05:00,
2013-02-05 01:10:00,43.5,21.4,29.00,North,0,0.0,0.0,41,0.00,,,0.00,VWS V12.08,2013-02-05 06:10:00,
2013-02-05 01:15:00,43.5,21.4,29.00,North,0,0.0,0.0,41,0.00,,,0.00,VWS V12.08,2013-02-05 06:15:00,
2013-02-05 01:20:00,43.7,21.6,29.00,North,0,0.0,0.0,41,0.00,,,0.00,VWS V12.08,2013-02-05 06:20:00,
2013-02-05 01:25:00,43.7,21.6,29.03,North,0,0.0,0.0,41,0.00,,,0.00,VWS V12.08,2013-02-05 06:25:00,
2013-02-05 01:30:00,43.7,21.6,29.03,North,0,0.0,0.0,41,0.00,,,0.00,VWS V12.08,2013-02-05 06:30:00,
2013-02-05 01:35:00,43.5,21.4,29.03,North,0,0.0,0.0,41,0.00,,,0.00,VWS V12.08,2013-02-05 06:35:00,
2013-02-05 01:40:00,43.7,21.6,29.00,North,0,0.0,0.0,41,0.00,,,0.00,VWS V12.08,2013-02-05 06:40:00,
2013-02-05 01:45:00,43.5,21.4,29.00,North,0,0.0,0.0,41,0.00,,,0.00,VWS V12.08,2013-02-05 06:45:00,
2013-02-05 01:50:00,43.5,21.4,29.00,North,0,0.0,0.0,41,0.00,,,0.00,VWS V12.08,2013-02-05 06:50:00,
2013-02-05 01:55:00,43.5,21.4,29.00,North,0,0.0,0.0,41,0.00,,,0.00,VWS V12.08,2013-02-05 06:55:00,
2013-02-05 02:00:00,43.5,21.4,29.00,North,0,0.0,0.0,41,0.00,,,0.00,VWS V12.08,2013-02-05 07:00:00,
2013-02-05 02:05:00,43.5,21.4,29.00,North,0,0.0,0.0,41,0.00,,,0.00,VWS V12.08,2013-02-05 07:05:00,
2013-02-05 02:10:00,43.3,21.2,29.00,North,0,0.0,0.0,41,0.00,,,0.00,VWS V12.08,2013-02-05 07:10:00,
2013-02-05 02:15:00,43.3,21.2,29.00,North,0,0.0,0.0,41,0.00,,,0.00,VWS V12.08,2013-02-05 07:15:00,
2013-02-05 02:20:00,43.3,21.2,29.00,North,0,0.0,0.0,41,0.00,,,0.00,VWS V12.08,2013-02-05 07:20:00,
2013-02-05 02:25:00,43.5,21.4,29.00,North,0,0.0,0.0,41,0.00,,,0.00,VWS V12.08,2013-02-05 07:25:00,
2013-02-05 02:30:00,43.5,21.4,29.00,North,0,0.0,0.0,41,0.00,,,0.00,VWS V12.08,2013-02-05 07:30:00,
2013-02-05 02:35:00,43.5,21.4,29.00,North,0,0.0,0.0,41,0.00,,,0.00,VWS V12.08,2013-02-05 07:35:00,
2013-02-05 02:40:00,43.3,21.2,29.00,North,0,0.0,0.0,41,0.00,,,0.00,VWS V12.08,2013-02-05 07:40:00,
2013-02-05 02:45:00,43.3,21.2,29.00,North,0,0.0,0.0,41,0.00,,,0.00,VWS V12.08,2013-02-05 07:45:00,
2013-02-05 02:50:00,43.3,21.2,29.00,North,0,0.0,0.0,41,0.00,,,0.00,VWS V12.08,2013-02-05 07:50:00,
2013-02-05 02:55:00,43.2,21.1,29.00,North,0,0.0,0.0,41,0.00,,,0.00,VWS V12.08,2013-02-05 07:55:00,
2013-02-05 03:00:00,43.0,20.9,29.00,North,0,0.0,0.0,41,0.00,,,0.00,VWS V12.08,2013-02-05 08:00:00,
2013-02-05 03:05:00,43.0,20.9,29.00,North,0,0.0,0.0,41,0.00,,,0.00,VWS V12.08,2013-02-05 08:05:00,
2013-02-05 03:10:00,43.0,20.9,29.00,North,0,0.0,0.0,41,0.00,,,0.00,VWS V12.08,2013-02-05 08:10:00,
2013-02-05 03:15:00,43.0,20.9,29.00,North,0,0.0,0.0,41,0.00,,,0.00,VWS V12.08,2013-02-05 08:15:00,
2013-02-05 03:20:00,43.0,20.9,29.00,North,0,0.0,0.0,41,0.00,,,0.00,VWS V12.08,2013-02-05 08:20:00,
2013-02-05 03:25:00,43.0,20.9,29.00,North,0,0.0,0.0,41,0.00,,,0.00,VWS V12.08,2013-02-05 08:25:00,
2013-02-05 03:30:00,43.2,21.1,29.00,North,0,0.0,0.0,41,0.00,,,0.00,VWS V12.08,2013-02-05 08:30:00,
2013-02-05 03:35:00,43.2,21.1,29.00,North,0,0.0,0.0,41,0.00,,,0.00,VWS V12.08,2013-02-05 08:35:00,
2013-02-05 03:40:00,43.2,21.1,29.00,North,0,0.0,0.0,41,0.00,,,0.00,VWS V12.08,2013-02-05 08:40:00,
2013-02-05 03:45:00,43.2,21.1,29.00,North,0,0.0,0.0,41,0.00,,,0.00,VWS V12.08,2013-02-05 08:45:00,
2013-02-05 03:50:00,43.2,21.1,29.00,North,0,0.0,0.0,41,0.00,,,0.00,VWS V12.08,2013-02-05 08:50:00,
2013-02-05 03:55:00,43.0,20.9,29.00,North,0,0.0,0.0,41,0.00,,,0.00,VWS V12.08,2013-02-05 08:55:00,
2013-02-05 04:00:00,43.0,20.9,29.00,North,0,0.0,0.0,41,0.00,,,0.00,VWS V12.08,2013-02-05 09:00:00,
2013-02-05 04:05:00,43.0,20.9,29.00,North,0,0.0,0.0,41,0.00,,,0.00,VWS V12.08,2013-02-05 09:05:00,
2013-02-05 04:10:00,43.0,20.9,29.00,North,0,0.0,0.0,41,0.00,,,0.00,VWS V12.08,2013-02-05 09:10:00,
2013-02-05 04:15:00,42.8,20.8,29.00,North,0,0.0,0.0,41,0.00,,,0.00,VWS V12.08,2013-02-05 09:15:00,
2013-02-05 04:20:00,42.8,20.8,29.00,North,0,0.0,0.0,41,0.00,,,0.00,VWS V12.08,2013-02-05 09:20:00,
2013-02-05 04:25:00,42.8,20.8,29.00,North,0,0.0,0.0,41,0.00,,,0.00,VWS V12.08,2013-02-05 09:25:00,
2013-02-05 04:30:00,42.6,20.6,29.00,North,0,0.0,0.0,41,0.00,,,0.00,VWS V12.08,2013-02-05 09:30:00,
2013-02-05 04:35:00,42.6,23.8,29.00,North,0,0.0,0.0,47,0.00,,,0.00,VWS V12.08,2013-02-05 09:35:00,
2013-02-05 04:40:00,42.4,23.6,29.00,North,0,0.0,0.0,47,0.00,,,0.00,VWS V12.08,2013-02-05 09:40:00,
2013-02-05 04:45:00,42.4,23.6,29.00,North,0,0.0,0.0,47,0.00,,,0.00,VWS V12.08,2013-02-05 09:45:00,
2013-02-05 04:50:00,42.4,23.6,29.00,North,0,0.0,0.0,47,0.00,,,0.00,VWS V12.08,2013-02-05 09:50:00,
2013-02-05 04:55:00,42.3,23.5,29.00,North,0,0.0,0.0,47,0.00,,,0.00,VWS V12.08,2013-02-05 09:55:00,
2013-02-05 05:00:00,42.1,25.3,29.00,North,0,0.0,0.0,51,0.00,,,0.00,VWS V12.08,2013-02-05 10:00:00,
2013-02-05 05:05:00,42.1,25.3,29.00,North,0,0.0,0.0,51,0.00,,,0.00,VWS V12.08,2013-02-05 10:05:00,
2013-02-05 05:10:00,41.9,25.1,29.00,North,0,0.0,0.0,51,0.00,,,0.00,VWS V12.08,2013-02-05 10:10:00,
2013-02-05 05:15:00,41.9,27.8,29.00,North,0,0.0,0.0,57,0.00,,,0.00,VWS V12.08,2013-02-05 10:15:00,
2013-02-05 05:20:00,41.7,27.6,29.00,North,0,0.0,0.0,57,0.00,,,0.00,VWS V12.08,2013-02-05 10:20:00,
2013-02-05 05:25:00,41.7,29.3,29.00,North,0,0.0,0.0,61,0.00,,,0.00,VWS V12.08,2013-02-05 10:25:00,
2013-02-05 05:30:00,41.5,30.7,29.00,North,0,0.0,0.0,65,0.00,,,0.00,VWS V12.08,2013-02-05 10:30:00,
2013-02-05 05:35:00,41.4,29.7,29.00,North,0,0.0,0.0,63,0.00,,,0.00,VWS V12.08,2013-02-05 10:35:00,
2013-02-05 05:40:00,41.5,29.9,29.00,North,0,0.0,0.0,63,0.00,,,0.00,VWS V12.08,2013-02-05 10:40:00,
2013-02-05 05:45:00,41.7,30.1,29.00,North,0,0.0,0.0,63,0.00,,,0.00,VWS V12.08,2013-02-05 10:45:00,
2013-02-05 05:50:00,41.7,31.6,29.00,North,0,0.0,0.0,67,0.00,,,0.00,VWS V12.08,2013-02-05 10:50:00,
2013-02-05 05:55:00,41.7,30.8,29.03,North,0,0.0,0.0,65,0.00,,,0.00,VWS V12.08,2013-02-05 10:55:00,
2013-02-05 06:00:00,41.7,30.8,29.03,North,0,0.0,0.0,65,0.00,,,0.00,VWS V12.08,2013-02-05 11:00:00,
2013-02-05 06:05:00,41.7,30.8,29.03,North,0,0.0,0.0,65,0.00,,,0.00,VWS V12.08,2013-02-05 11:05:00,
2013-02-05 06:10:00,41.7,30.8,29.00,North,0,0.0,0.0,65,0.00,,,0.00,VWS V12.08,2013-02-05 11:10:00,
2013-02-05 06:15:00,42.1,31.2,29.00,North,0,0.0,0.0,65,0.00,,,0.00,VWS V12.08,2013-02-05 11:15:00,
2013-02-05 06:20:00,42.1,31.2,29.00,North,0,0.0,0.0,65,0.00,,,0.00,VWS V12.08,2013-02-05 11:20:00,
2013-02-05 06:25:00,42.1,31.2,29.03,North,0,0.0,0.0,65,0.00,,,0.00,VWS V12.08,2013-02-05 11:25:00,
2013-02-05 06:30:00,42.3,32.1,29.03,North,0,0.0,0.0,67,0.00,,,0.00,VWS V12.08,2013-02-05 11:30:00,
2013-02-05 06:35:00,42.3,31.4,29.03,North,0,0.0,0.0,65,0.00,,,0.00,VWS V12.08,2013-02-05 11:35:00,
2013-02-05 06:40:00,42.3,31.4,29.03,North,0,0.0,0.0,65,0.00,,,0.00,VWS V12.08,2013-02-05 11:40:00,
2013-02-05 06:45:00,42.3,32.8,29.03,North,0,0.0,0.0,69,0.00,,,0.00,VWS V12.08,2013-02-05 11:45:00,
2013-02-05 06:50:00,42.3,32.8,29.03,North,0,0.0,0.0,69,0.00,,,0.00,VWS V12.08,2013-02-05 11:50:00,
2013-02-05 06:55:00,42.3,33.5,29.03,North,0,0.0,0.0,71,0.00,,,0.00,VWS V12.08,2013-02-05 11:55:00,
2013-02-05 07:00:00,42.3,32.8,29.03,North,0,0.0,0.0,69,0.00,,,0.00,VWS V12.08,2013-02-05 12:00:00,
2013-02-05 07:05:00,42.4,33.0,29.03,North,0,0.0,0.0,69,0.00,,,0.00,VWS V12.08,2013-02-05 12:05:00,
2013-02-05 07:10:00,42.4,33.0,29.03,North,0,0.0,0.0,69,0.00,,,0.00,VWS V12.08,2013-02-05 12:10:00,
2013-02-05 07:15:00,42.3,32.8,29.03,North,0,0.0,0.0,69,0.00,,,0.00,VWS V12.08,2013-02-05 12:15:00,
2013-02-05 07:20:00,42.3,32.8,29.03,North,0,0.0,0.0,69,0.00,,,0.00,VWS V12.08,2013-02-05 12:20:00,
2013-02-05 07:25:00,42.3,32.8,29.03,North,0,0.0,0.0,69,0.00,,,0.00,VWS V12.08,2013-02-05 12:25:00,
2013-02-05 07:30:00,42.4,33.0,29.03,North,0,0.0,0.0,69,0.00,,,0.00,VWS V12.08,2013-02-05 12:30:00,
2013-02-05 07:35:00,42.4,33.0,29.03,North,0,0.0,0.0,69,0.00,,,0.00,VWS V12.08,2013-02-05 12:35:00,
2013-02-05 07:40:00,42.4,33.7,29.03,North,0,0.0,0.0,71,0.00,,,0.00,VWS V12.08,2013-02-05 12:40:00,
2013-02-05 07:45:00,42.6,33.9,29.03,North,0,0.0,0.0,71,0.00,,,0.00,VWS V12.08,2013-02-05 12:45:00,
2013-02-05 07:50:00,42.6,33.9,29.03,North,0,0.0,0.0,71,0.00,,,0.00,VWS V12.08,2013-02-05 12:50:00,
2013-02-05 07:55:00,42.8,34.1,29.03,North,0,0.0,0.0,71,0.00,,,0.00,VWS V12.08,2013-02-05 12:55:00,
2013-02-05 08:00:00,42.8,34.1,29.03,North,0,0.0,0.0,71,0.00,,,0.00,VWS V12.08,2013-02-05 13:00:00,
2013-02-05 08:05:00,42.8,34.1,29.03,North,0,0.0,0.0,71,0.00,,,0.00,VWS V12.08,2013-02-05 13:05:00,
2013-02-05 08:10:00,43.0,34.2,29.06,North,0,0.0,0.0,71,0.00,,,0.00,VWS V12.08,2013-02-05 13:10:00,
2013-02-05 08:15:00,43.2,34.4,29.06,North,0,0.0,0.0,71,0.00,,,0.00,VWS V12.08,2013-02-05 13:15:00,
2013-02-05 08:20:00,43.2,34.4,29.06,North,0,0.0,0.0,71,0.00,,,0.00,VWS V12.08,2013-02-05 13:20:00,
2013-02-05 08:25:00,43.2,34.4,29.06,North,0,0.0,0.0,71,0.00,,,0.00,VWS V12.08,2013-02-05 13:25:00,
2013-02-05 08:30:00,43.3,35.3,29.06,North,0,0.0,0.0,73,0.00,,,0.00,VWS V12.08,2013-02-05 13:30:00,
2013-02-05 08:35:00,43.3,36.0,29.06,North,0,0.0,0.0,75,0.00,,,0.00,VWS V12.08,2013-02-05 13:35:00,
2013-02-05 08:40:00,43.5,36.1,29.06,North,0,0.0,0.0,75,0.00,,,0.00,VWS V12.08,2013-02-05 13:40:00,
2013-02-05 08:45:00,43.5,36.8,29.06,North,0,0.0,0.0,77,0.00,,,0.00,VWS V12.08,2013-02-05 13:45:00,
2013-02-05 08:50:00,43.5,36.8,29.06,North,0,0.0,0.0,77,0.00,,,0.00,VWS V12.08,2013-02-05 13:50:00,
2013-02-05 08:55:00,43.9,37.2,29.06,North,0,0.0,0.0,77,0.00,,,0.00,VWS V12.08,2013-02-05 13:55:00,
2013-02-05 09:00:00,44.2,38.8,29.06,North,0,0.0,0.0,81,0.00,,,0.00,VWS V12.08,2013-02-05 14:00:00,
2013-02-05 09:05:00,44.6,38.5,29.06,North,0,0.0,0.0,79,0.00,,,0.00,VWS V12.08,2013-02-05 14:05:00,
2013-02-05 09:10:00,45.1,39.0,29.06,North,0,0.0,0.0,79,0.00,,,0.00,VWS V12.08,2013-02-05 14:10:00,
2013-02-05 09:15:00,45.5,38.7,29.06,North,0,0.0,0.0,77,0.00,,,0.00,VWS V12.08,2013-02-05 14:15:00,
2013-02-05 09:20:00,45.5,38.0,29.06,North,0,0.0,0.0,75,0.00,,,0.00,VWS V12.08,2013-02-05 14:20:00,
2013-02-05 09:25:00,46.2,37.3,29.06,North,0,0.0,0.0,71,0.00,,,0.00,VWS V12.08,2013-02-05 14:25:00,
2013-02-05 09:30:00,47.1,35.2,29.06,North,0,0.0,0.0,63,0.00,,,0.00,VWS V12.08,2013-02-05 14:30:00,
2013-02-05 09:35:00,47.7,34.0,29.06,North,0,0.0,0.0,59,0.00,,,0.00,VWS V12.08,2013-02-05 14:35:00,
2013-02-05 09:40:00,47.7,26.3,29.06,North,0,0.0,0.0,43,0.00,,,0.00,VWS V12.08,2013-02-05 14:40:00,
2013-02-05 09:45:00,47.8,26.4,29.06,North,0,0.0,0.0,43,0.00,,,0.00,VWS V12.08,2013-02-05 14:45:00,
2013-02-05 09:50:00,47.8,26.4,29.06,North,0,0.0,0.0,43,0.00,,,0.00,VWS V12.08,2013-02-05 14:50:00,
2013-02-05 09:56:00,48.2,26.8,29.06,North,0,0.0,0.0,43,0.00,,,0.00,VWS V12.08,2013-02-05 14:56:00,
2013-02-05 10:01:00,48.4,26.9,29.06,North,0,0.0,0.0,43,0.00,,,0.00,VWS V12.08,2013-02-05 15:01:00,
2013-02-05 10:06:00,48.4,26.9,29.06,North,0,0.0,0.0,43,0.00,,,0.00,VWS V12.08,2013-02-05 15:06:00,
2013-02-05 10:11:00,48.6,27.1,29.06,North,0,0.0,0.0,43,0.00,,,0.00,VWS V12.08,2013-02-05 15:11:00,
2013-02-05 10:16:00,48.7,27.3,29.06,North,0,0.0,0.0,43,0.00,,,0.00,VWS V12.08,2013-02-05 15:16:00,
2013-02-05 10:21:00,49.1,27.6,29.06,North,0,0.0,0.0,43,0.00,,,0.00,VWS V12.08,2013-02-05 15:21:00,
2013-02-05 10:26:00,49.3,27.8,29.09,North,0,0.0,0.0,43,0.00,,,0.00,VWS V12.08,2013-02-05 15:26:00,
2013-02-05 10:31:00,49.5,27.9,29.09,North,0,0.0,0.0,43,0.00,,,0.00,VWS V12.08,2013-02-05 15:31:00,
2013-02-05 10:36:00,49.6,28.1,29.09,North,0,0.0,0.0,43,0.00,,,0.00,VWS V12.08,2013-02-05 15:36:00,
2013-02-05 10:41:00,49.8,28.2,29.09,North,0,0.0,0.0,43,0.00,,,0.00,VWS V12.08,2013-02-05 15:41:00,
2013-02-05 10:46:00,50.0,28.4,29.09,North,0,0.0,0.0,43,0.00,,,0.00,VWS V12.08,2013-02-05 15:46:00,
2013-02-05 10:51:00,50.7,29.1,29.09,North,0,0.0,0.0,43,0.00,,,0.00,VWS V12.08,2013-02-05 15:51:00,
2013-02-05 10:56:00,51.4,29.7,29.09,North,0,0.0,0.0,43,0.00,,,0.00,VWS V12.08,2013-02-05 15:56:00,
2013-02-05 11:01:00,52.0,29.0,29.09,North,0,0.0,0.0,41,0.00,,,0.00,VWS V12.08,2013-02-05 16:01:00,
2013-02-05 11:06:00,52.0,29.0,29.09,North,0,0.0,0.0,41,0.00,,,0.00,VWS V12.08,2013-02-05 16:06:00,
2013-02-05 11:11:00,52.2,29.2,29.09,North,0,0.0,0.0,41,0.00,,,0.00,VWS V12.08,2013-02-05 16:11:00,
2013-02-05 11:16:00,52.7,29.7,29.09,North,0,0.0,0.0,41,0.00,,,0.00,VWS V12.08,2013-02-05 16:16:00,
2013-02-05 11:21:00,53.1,30.0,29.09,North,0,0.0,0.0,41,0.00,,,0.00,VWS V12.08,2013-02-05 16:21:00,
2013-02-05 11:26:00,53.2,30.2,29.06,North,0,0.0,0.0,41,0.00,,,0.00,VWS V12.08,2013-02-05 16:26:00,
2013-02-05 11:31:00,53.1,30.0,29.06,North,0,0.0,0.0,41,0.00,,,0.00,VWS V12.08,2013-02-05 16:31:00,
2013-02-05 11:36:00,53.4,30.3,29.06,North,0,0.0,0.0,41,0.00,,,0.00,VWS V12.08,2013-02-05 16:36:00,
2013-02-05 11:41:00,53.6,30.5,29.06,North,0,0.0,0.0,41,0.00,,,0.00,VWS V12.08,2013-02-05 16:41:00,
2013-02-05 11:46:00,54.7,31.5,29.06,North,0,0.0,0.0,41,0.00,,,0.00,VWS V12.08,2013-02-05 16:46:00,
2013-02-05 11:51:00,55.4,30.9,29.06,North,0,0.0,0.0,39,0.00,,,0.00,VWS V12.08,2013-02-05 16:51:00,
2013-02-05 11:56:00,56.1,31.5,29.06,North,0,0.0,0.0,39,0.00,,,0.00,VWS V12.08,2013-02-05 16:56:00,
2013-02-05 12:01:00,56.5,31.8,29.06,North,0,0.0,0.0,39,0.00,,,0.00,VWS V12.08,2013-02-05 17:01:00,
2013-02-05 12:06:00,56.8,32.2,29.06,North,0,0.0,0.0,39,0.00,,,0.00,VWS V12.08,2013-02-05 17:06:00,
2013-02-05 12:11:00,56.8,32.2,29.06,North,0,0.0,0.0,39,0.00,,,0.00,VWS V12.08,2013-02-05 17:11:00,
2013-02-05 12:16:00,57.9,33.1,29.06,North,0,0.0,0.0,39,0.00,,,0.00,VWS V12.08,2013-02-05 17:16:00,
2013-02-05 12:21:00,58.6,33.8,29.06,North,0,0.0,0.0,39,0.00,,,0.00,VWS V12.08,2013-02-05 17:21:00,
2013-02-05 12:26:00,59.2,34.3,29.06,North,0,0.0,0.0,39,0.00,,,0.00,VWS V12.08,2013-02-05 17:26:00,
2013-02-05 12:31:00,59.2,34.3,29.06,North,0,0.0,0.0,39,0.00,,,0.00,VWS V12.08,2013-02-05 17:31:00,
2013-02-05 12:36:00,59.7,34.7,29.06,North,0,0.0,0.0,39,0.00,,,0.00,VWS V12.08,2013-02-05 17:36:00,
2013-02-05 12:41:00,60.6,35.5,29.06,North,0,0.0,0.0,39,0.00,,,0.00,VWS V12.08,2013-02-05 17:41:00,
2013-02-05 12:46:00,61.0,34.5,29.06,North,0,0.0,0.0,37,0.00,,,0.00,VWS V12.08,2013-02-05 17:46:00,
2013-02-05 12:51:00,61.3,34.9,29.06,North,0,0.0,0.0,37,0.00,,,0.00,VWS V12.08,2013-02-05 17:51:00,
2013-02-05 12:56:00,61.3,34.9,29.03,North,0,0.0,0.0,37,0.00,,,0.00,VWS V12.08,2013-02-05 17:56:00,
2013-02-05 13:01:00,62.6,36.0,29.03,North,0,0.0,0.0,37,0.00,,,0.00,VWS V12.08,2013-02-05 18:01:00,
2013-02-05 13:06:00,62.6,36.0,29.03,North,0,0.0,0.0,37,0.00,,,0.00,VWS V12.08,2013-02-05 18:06:00,
2013-02-05 13:11:00,63.9,37.1,29.03,North,0,0.0,0.0,37,0.00,,,0.00,VWS V12.08,2013-02-05 18:11:00,
2013-02-05 13:16:00,63.9,37.1,29.03,North,0,0.0,0.0,37,0.00,,,0.00,VWS V12.08,2013-02-05 18:16:00,
2013-02-05 13:21:00,64.6,36.3,29.03,North,0,0.0,0.0,35,0.00,,,0.00,VWS V12.08,2013-02-05 18:21:00,
2013-02-05 13:26:00,65.1,36.8,29.03,North,0,0.0,0.0,35,0.00,,,0.00,VWS V12.08,2013-02-05 18:26:00,
2013-02-05 13:31:00,65.1,36.8,29.03,North,0,0.0,0.0,35,0.00,,,0.00,VWS V12.08,2013-02-05 18:31:00,
2013-02-05 13:36:00,65.3,37.0,29.03,North,0,0.0,0.0,35,0.00,,,0.00,VWS V12.08,2013-02-05 18:36:00,
2013-02-05 13:41:00,66.0,37.6,29.03,North,0,0.0,0.0,35,0.00,,,0.00,VWS V12.08,2013-02-05 18:41:00,
2013-02-05 13:46:00,66.2,37.8,29.03,North,0,0.0,0.0,35,0.00,,,0.00,VWS V12.08,2013-02-05 18:46:00,
2013-02-05 13:51:00,66.4,37.9,29.03,North,0,0.0,0.0,35,0.00,,,0.00,VWS V12.08,2013-02-05 18:51:00,
2013-02-05 13:56:00,66.6,38.1,29.03,North,0,0.0,0.0,35,0.00,,,0.00,VWS V12.08,2013-02-05 18:56:00,
2013-02-05 14:01:00,66.4,37.9,29.03,North,0,0.0,0.0,35,0.00,,,0.00,VWS V12.08,2013-02-05 19:01:00,
2013-02-05 14:06:00,66.7,38.2,29.03,North,0,0.0,0.0,35,0.00,,,0.00,VWS V12.08,2013-02-05 19:06:00,
2013-02-05 14:11:00,66.9,38.4,29.00,North,0,0.0,0.0,35,0.00,,,0.00,VWS V12.08,2013-02-05 19:11:00,
2013-02-05 14:16:00,66.7,38.2,29.00,North,0,0.0,0.0,35,0.00,,,0.00,VWS V12.08,2013-02-05 19:16:00,
2013-02-05 14:21:00,66.7,38.2,29.00,North,0,0.0,0.0,35,0.00,,,0.00,VWS V12.08,2013-02-05 19:21:00,
2013-02-05 14:26:00,66.9,38.4,29.00,North,0,0.0,0.0,35,0.00,,,0.00,VWS V12.08,2013-02-05 19:26:00,
2013-02-05 14:31:00,66.7,38.2,29.00,North,0,0.0,0.0,35,0.00,,,0.00,VWS V12.08,2013-02-05 19:31:00,
2013-02-05 14:36:00,67.3,38.7,29.00,North,0,0.0,0.0,35,0.00,,,0.00,VWS V12.08,2013-02-05 19:36:00,
2013-02-05 14:41:00,67.5,38.9,29.00,North,0,0.0,0.0,35,0.00,,,0.00,VWS V12.08,2013-02-05 19:41:00,
2013-02-05 14:46:00,67.6,39.0,29.00,North,0,0.0,0.0,35,0.00,,,0.00,VWS V12.08,2013-02-05 19:46:00,
2013-02-05 14:51:00,67.5,38.9,29.00,North,0,0.0,0.0,35,0.00,,,0.00,VWS V12.08,2013-02-05 19:51:00,
2013-02-05 14:56:00,67.5,38.9,29.00,North,0,0.0,0.0,35,0.00,,,0.00,VWS V12.08,2013-02-05 19:56:00,
2013-02-05 15:01:00,67.8,39.2,29.00,North,0,0.0,0.0,35,0.00,,,0.00,VWS V12.08,2013-02-05 20:01:00,
2013-02-05 15:06:00,68.2,39.5,29.00,North,0,0.0,0.0,35,0.00,,,0.00,VWS V12.08,2013-02-05 20:06:00,
2013-02-05 15:11:00,68.5,39.8,29.00,North,0,0.0,0.0,35,0.00,,,0.00,VWS V12.08,2013-02-05 20:11:00,
2013-02-05 15:16:00,68.4,39.7,29.00,North,0,0.0,0.0,35,0.00,,,0.00,VWS V12.08,2013-02-05 20:16:00,
2013-02-05 15:21:00,68.4,39.7,29.00,North,0,0.0,0.0,35,0.00,,,0.00,VWS V12.08,2013-02-05 20:21:00,
2013-02-05 15:26:00,68.4,39.7,29.00,North,0,0.0,0.0,35,0.00,,,0.00,VWS V12.08,2013-02-05 20:26:00,
2013-02-05 15:31:00,68.0,39.3,29.00,North,0,0.0,0.0,35,0.00,,,0.00,VWS V12.08,2013-02-05 20:31:00,
2013-02-05 15:36:00,67.3,38.7,29.00,North,0,0.0,0.0,35,0.00,,,0.00,VWS V12.08,2013-02-05 20:36:00,
2013-02-05 15:41:00,67.1,38.6,29.00,North,0,0.0,0.0,35,0.00,,,0.00,VWS V12.08,2013-02-05 20:41:00,
2013-02-05 15:46:00,67.6,39.0,29.00,North,0,0.0,0.0,35,0.00,,,0.00,VWS V12.08,2013-02-05 20:46:00,
2013-02-05 15:51:00,67.8,39.2,29.00,North,0,0.0,0.0,35,0.00,,,0.00,VWS V12.08,2013-02-05 20:51:00,
2013-02-05 15:56:00,67.8,39.2,29.00,North,0,0.0,0.0,35,0.00,,,0.00,VWS V12.08,2013-02-05 20:56:00,
2013-02-05 16:01:00,67.6,39.0,29.00,North,0,0.0,0.0,35,0.00,,,0.00,VWS V12.08,2013-02-05 21:01:00,
2013-02-05 16:06:00,67.3,38.7,29.00,North,0,0.0,0.0,35,0.00,,,0.00,VWS V12.08,2013-02-05 21:06:00,
2013-02-05 16:11:00,67.3,38.7,29.00,North,0,0.0,0.0,35,0.00,,,0.00,VWS V12.08,2013-02-05 21:11:00,
2013-02-05 16:16:00,67.1,38.6,29.00,North,0,0.0,0.0,35,0.00,,,0.00,VWS V12.08,2013-02-05 21:16:00,
2013-02-05 16:21:00,67.3,38.7,29.00,North,0,0.0,0.0,35,0.00,,,0.00,VWS V12.08,2013-02-05 21:21:00,
2013-02-05 16:26:00,67.1,38.6,29.00,North,0,0.0,0.0,35,0.00,,,0.00,VWS V12.08,2013-02-05 21:26:00,
2013-02-05 16:31:00,67.1,38.6,29.00,North,0,0.0,0.0,35,0.00,,,0.00,VWS V12.08,2013-02-05 21:31:00,
2013-02-05 16:36:00,66.6,38.1,29.00,North,0,0.0,0.0,35,0.00,,,0.00,VWS V12.08,2013-02-05 21:36:00,
2013-02-05 16:41:00,66.2,37.8,29.00,North,0,0.0,0.0,35,0.00,,,0.00,VWS V12.08,2013-02-05 21:41:00,
2013-02-05 16:46:00,65.8,37.5,29.00,North,0,0.0,0.0,35,0.00,,,0.00,VWS V12.08,2013-02-05 21:46:00,
2013-02-05 16:51:00,65.5,37.1,29.00,North,0,0.0,0.0,35,0.00,,,0.00,VWS V12.08,2013-02-05 21:51:00,
2013-02-05 16:56:00,65.5,37.1,29.00,North,0,0.0,0.0,35,0.00,,,0.00,VWS V12.08,2013-02-05 21:56:00,
2013-02-05 17:01:00,65.3,37.0,29.00,North,0,0.0,0.0,35,0.00,,,0.00,VWS V12.08,2013-02-05 22:01:00,
2013-02-05 17:06:00,64.9,36.7,29.00,North,0,0.0,0.0,35,0.00,,,0.00,VWS V12.08,2013-02-05 22:06:00,
2013-02-05 17:11:00,64.8,36.5,29.00,North,0,0.0,0.0,35,0.00,,,0.00,VWS V12.08,2013-02-05 22:11:00,
2013-02-05 17:16:00,64.4,36.2,29.00,North,0,0.0,0.0,35,0.00,,,0.00,VWS V12.08,2013-02-05 22:16:00,
2013-02-05 17:21:00,64.4,36.2,29.00,North,0,0.0,0.0,35,0.00,,,0.00,VWS V12.08,2013-02-05 22:21:00,
2013-02-05 17:26:00,63.7,37.0,29.00,North,0,0.0,0.0,37,0.00,,,0.00,VWS V12.08,2013-02-05 22:26:00,
2013-02-05 17:31:00,63.3,36.6,29.00,North,0,0.0,0.0,37,0.00,,,0.00,VWS V12.08,2013-02-05 22:31:00,
2013-02-05 17:36:00,62.6,36.0,29.00,North,0,0.0,0.0,37,0.00,,,0.00,VWS V12.08,2013-02-05 22:36:00,
2013-02-05 17:41:00,62.1,35.5,29.00,North,0,0.0,0.0,37,0.00,,,0.00,VWS V12.08,2013-02-05 22:41:00,
2013-02-05 17:46:00,61.7,35.2,29.00,North,0,0.0,0.0,37,0.00,,,0.00,VWS V12.08,2013-02-05 22:46:00,
2013-02-05 17:51:00,61.3,34.9,29.00,North,0,0.0,0.0,37,0.00,,,0.00,VWS V12.08,2013-02-05 22:51:00,
2013-02-05 17:56:00,61.0,34.5,29.00,North,0,0.0,0.0,37,0.00,,,0.00,VWS V12.08,2013-02-05 22:56:00,
2013-02-05 18:01:00,60.6,35.5,29.00,North,0,0.0,0.0,39,0.00,,,0.00,VWS V12.08,2013-02-05 23:01:00,
2013-02-05 18:06:00,60.3,35.2,29.00,North,0,0.0,0.0,39,0.00,,,0.00,VWS V12.08,2013-02-05 23:06:00,
2013-02-05 18:11:00,59.9,34.9,29.00,North,0,0.0,0.0,39,0.00,,,0.00,VWS V12.08,2013-02-05 23:11:00,
2013-02-05 18:16:00,59.4,34.4,29.00,North,0,0.0,0.0,39,0.00,,,0.00,VWS V12.08,2013-02-05 23:16:00,
2013-02-05 18:21:00,59.2,34.3,29.00,North,0,0.0,0.0,39,0.00,,,0.00,VWS V12.08,2013-02-05 23:21:00,
2013-02-05 18:26:00,59.0,34.1,29.00,North,0,0.0,0.0,39,0.00,,,0.00,VWS V12.08,2013-02-05 23:26:00,
2013-02-05 18:31:00,58.6,33.8,29.00,North,0,0.0,0.0,39,0.00,,,0.00,VWS V12.08,2013-02-05 23:31:00,
2013-02-05 18:36:00,58.1,33.3,29.00,North,0,0.0,0.0,39,0.00,,,0.00,VWS V12.08,2013-02-05 23:36:00,
2013-02-05 18:41:00,57.4,32.7,29.00,North,0,0.0,0.0,39,0.00,,,0.00,VWS V12.08,2013-02-05 23:41:00,
2013-02-05 18:46:00,57.2,32.5,29.00,North,0,0.0,0.0,39,0.00,,,0.00,VWS V12.08,2013-02-05 23:46:00,
2013-02-05 18:51:00,56.7,32.0,29.00,North,0,0.0,0.0,39,0.00,,,0.00,VWS V12.08,2013-02-05 23:51:00,
2013-02-05 18:56:00,56.7,32.0,29.00,North,0,0.0,0.0,39,0.00,,,0.00,VWS V12.08,2013-02-05 23:56:00,
2013-02-05 19:01:00,56.3,31.7,29.00,North,0,0.0,0.0,39,0.00,,,0.00,VWS V12.08,2013-02-06 00:01:00,
2013-02-05 19:06:00,55.9,31.4,29.00,North,0,0.0,0.0,39,0.00,,,0.00,VWS V12.08,2013-02-06 00:06:00,
2013-02-05 19:11:00,55.9,31.4,29.03,North,0,0.0,0.0,39,0.00,,,0.00,VWS V12.08,2013-02-06 00:11:00,
2013-02-05 19:16:00,55.8,31.2,29.03,North,0,0.0,0.0,39,0.00,,,0.00,VWS V12.08,2013-02-06 00:16:00,
2013-02-05 19:21:00,55.8,31.2,29.03,North,0,0.0,0.0,39,0.00,,,0.00,VWS V12.08,2013-02-06 00:21:00,
2013-02-05 19:26:00,55.6,31.0,29.03,North,0,0.0,0.0,39,0.00,,,0.00,VWS V12.08,2013-02-06 00:26:00,
2013-02-05 19:31:00,55.4,30.9,29.03,North,0,0.0,0.0,39,0.00,,,0.00,VWS V12.08,2013-02-06 00:31:00,
2013-02-05 19:36:00,55.2,32.0,29.03,North,0,0.0,0.0,41,0.00,,,0.00,VWS V12.08,2013-02-06 00:36:00,
2013-02-05 19:41:00,54.9,31.6,29.03,North,0,0.0,0.0,41,0.00,,,0.00,VWS V12.08,2013-02-06 00:41:00,
2013-02-05 19:46:00,54.7,31.5,29.03,North,0,0.0,0.0,41,0.00,,,0.00,VWS V12.08,2013-02-06 00:46:00,
2013-02-05 19:51:00,54.5,31.3,29.03,North,0,0.0,0.0,41,0.00,,,0.00,VWS V12.08,2013-02-06 00:51:00,
2013-02-05 19:56:00,54.3,31.1,29.03,North,0,0.0,0.0,41,0.00,,,0.00,VWS V12.08,2013-02-06 00:56:00,
2013-02-05 20:01:00,54.1,31.0,29.03,North,0,0.0,0.0,41,0.00,,,0.00,VWS V12.08,2013-02-06 01:01:00,
2013-02-05 20:06:00,54.0,30.8,29.03,North,0,0.0,0.0,41,0.00,,,0.00,VWS V12.08,2013-02-06 01:06:00,
2013-02-05 20:11:00,53.8,30.6,29.03,North,0,0.0,0.0,41,0.00,,,0.00,VWS V12.08,2013-02-06 01:11:00,
2013-02-05 20:16:00,53.6,30.5,29.03,North,0,0.0,0.0,41,0.00,,,0.00,VWS V12.08,2013-02-06 01:16:00,
2013-02-05 20:21:00,53.2,30.2,29.03,North,0,0.0,0.0,41,0.00,,,0.00,VWS V12.08,2013-02-06 01:21:00,
2013-02-05 20:26:00,53.1,30.0,29.03,North,0,0.0,0.0,41,0.00,,,0.00,VWS V12.08,2013-02-06 01:26:00,
2013-02-05 20:31:00,52.9,29.8,29.03,North,0,0.0,0.0,41,0.00,,,0.00,VWS V12.08,2013-02-06 01:31:00,
2013-02-05 20:36:00,52.5,32.9,29.06,North,0,0.0,0.0,47,0.00,,,0.00,VWS V12.08,2013-02-06 01:36:00,
2013-02-05 20:41:00,52.5,32.9,29.06,North,0,0.0,0.0,47,0.00,,,0.00,VWS V12.08,2013-02-06 01:41:00,
2013-02-05 20:46:00,51.6,32.1,29.06,North,0,0.0,0.0,47,0.00,,,0.00,VWS V12.08,2013-02-06 01:46:00,
2013-02-05 20:51:00,51.4,31.9,29.06,North,0,0.0,0.0,47,0.00,,,0.00,VWS V12.08,2013-02-06 01:51:00,
2013-02-05 20:56:00,51.1,31.6,29.06,North,0,0.0,0.0,47,0.00,,,0.00,VWS V12.08,2013-02-06 01:56:00,
2013-02-05 21:01:00,50.7,31.2,29.06,North,0,0.0,0.0,47,0.00,,,0.00,VWS V12.08,2013-02-06 02:01:00,
2013-02-05 21:06:00,50.4,30.9,29.06,North,0,0.0,0.0,47,0.00,,,0.00,VWS V12.08,2013-02-06 02:06:00,
2013-02-05 21:11:00,50.4,30.9,29.06,North,0,0.0,0.0,47,0.00,,,0.00,VWS V12.08,2013-02-06 02:11:00,
2013-02-05 21:16:00,50.2,30.8,29.06,North,0,0.0,0.0,47,0.00,,,0.00,VWS V12.08,2013-02-06 02:16:00,
2013-02-05 21:21:00,50.0,30.6,29.06,North,0,0.0,0.0,47,0.00,,,0.00,VWS V12.08,2013-02-06 02:21:00,
2013-02-05 21:26:00,49.8,33.4,29.06,North,0,0.0,0.0,53,0.00,,,0.00,VWS V12.08,2013-02-06 02:26:00,
2013-02-05 21:31:00,49.8,33.4,29.06,North,0,0.0,0.0,53,0.00,,,0.00,VWS V12.08,2013-02-06 02:31:00,
2013-02-05 21:36:00,49.5,33.1,29.06,North,0,0.0,0.0,53,0.00,,,0.00,VWS V12.08,2013-02-06 02:36:00,
2013-02-05 21:41:00,49.3,35.6,29.06,North,0,0.0,0.0,59,0.00,,,0.00,VWS V12.08,2013-02-06 02:41:00,
2013-02-05 21:46:00,49.3,35.6,29.06,North,0,0.0,0.0,59,0.00,,,0.00,VWS V12.08,2013-02-06 02:46:00,
2013-02-05 21:51:00,48.9,35.2,29.06,North,0,0.0,0.0,59,0.00,,,0.00,VWS V12.08,2013-02-06 02:51:00,
2013-02-05 21:56:00,48.7,35.1,29.06,North,0,0.0,0.0,59,0.00,,,0.00,VWS V12.08,2013-02-06 02:56:00,
2013-02-05 22:01:00,48.7,35.1,29.06,North,0,0.0,0.0,59,0.00,,,0.00,VWS V12.08,2013-02-06 03:01:00,
2013-02-05 22:06:00,48.6,34.9,29.06,North,0,0.0,0.0,59,0.00,,,0.00,VWS V12.08,2013-02-06 03:06:00,
2013-02-05 22:11:00,48.4,34.7,29.06,North,0,0.0,0.0,59,0.00,,,0.00,VWS V12.08,2013-02-06 03:11:00,
2013-02-05 22:16:00,48.2,35.4,29.06,North,0,0.0,0.0,61,0.00,,,0.00,VWS V12.08,2013-02-06 03:16:00,
2013-02-05 22:21:00,48.2,35.4,29.06,North,0,0.0,0.0,61,0.00,,,0.00,VWS V12.08,2013-02-06 03:21:00,
2013-02-05 22:26:00,48.2,36.2,29.06,North,0,0.0,0.0,63,0.00,,,0.00,VWS V12.08,2013-02-06 03:26:00,
2013-02-05 22:31:00,48.0,36.0,29.06,North,0,0.0,0.0,63,0.00,,,0.00,VWS V12.08,2013-02-06 03:31:00,
2013-02-05 22:36:00,48.0,36.8,29.06,North,0,0.0,0.0,65,0.00,,,0.00,VWS V12.08,2013-02-06 03:36:00,
2013-02-05 22:41:00,47.8,36.7,29.09,North,0,0.0,0.0,65,0.00,,,0.00,VWS V12.08,2013-02-06 03:41:00,
2013-02-05 22:46:00,48.0,37.6,29.09,North,0,0.0,0.0,67,0.00,,,0.00,VWS V12.08,2013-02-06 03:46:00,
2013-02-05 22:51:00,48.0,36.8,29.09,North,0,0.0,0.0,65,0.00,,,0.00,VWS V12.08,2013-02-06 03:51:00,
2013-02-05 22:56:00,47.8,36.7,29.09,North,0,0.0,0.0,65,0.00,,,0.00,VWS V12.08,2013-02-06 03:56:00,
2013-02-05 23:01:00,47.7,37.3,29.09,North,0,0.0,0.0,67,0.00,,,0.00,VWS V12.08,2013-02-06 04:01:00,
2013-02-05 23:06:00,47.5,37.1,29.09,North,0,0.0,0.0,67,0.00,,,0.00,VWS V12.08,2013-02-06 04:06:00,
2013-02-05 23:11:00,47.5,37.1,29.09,North,0,0.0,0.0,67,0.00,,,0.00,VWS V12.08,2013-02-06 04:11:00,
2013-02-05 23:16:00,47.5,37.1,29.09,North,0,0.0,0.0,67,0.00,,,0.00,VWS V12.08,2013-02-06 04:16:00,
2013-02-05 23:21:00,47.7,38.0,29.09,North,0,0.0,0.0,69,0.00,,,0.00,VWS V12.08,2013-02-06 04:21:00,
2013-02-05 23:26:00,47.5,38.6,29.09,North,0,0.0,0.0,71,0.00,,,0.00,VWS V12.08,2013-02-06 04:26:00,
2013-02-05 23:31:00,47.5,38.6,29.09,North,0,0.0,0.0,71,0.00,,,0.00,VWS V12.08,2013-02-06 04:31:00,
2013-02-05 23:36:00,47.3,38.4,29.09,North,0,0.0,0.0,71,0.00,,,0.00,VWS V12.08,2013-02-06 04:36:00,
2013-02-05 23:41:00,47.3,38.4,29.09,North,0,0.0,0.0,71,0.00,,,0.00,VWS V12.08,2013-02-06 04:41:00,
2013-02-05 23:46:00,47.3,38.4,29.09,North,0,0.0,0.0,71,0.00,,,0.00,VWS V12.08,2013-02-06 04:46:00,
2013-02-05 23:51:00,47.1,38.2,29.09,North,0,0.0,0.0,71,0.00,,,0.00,VWS V12.08,2013-02-06 04:51:00,
2013-02-05 23:56:00,47.1,38.2,29.09,North,0,0.0,0.0,71,0.00,,,0.00,VWS V12.08,2013-02-06 04:56:00,